Air Resources Laboratory banner image
Air Resources Laboratory web site National Oceanic and Atmospheric Administration (NOAA)

wv roundup


Office: RLX

ASUS41 KRLX 151210
RWRRLX
West Virginia Regional Weather Roundup
National Weather Service Charleston WV
700 AM EST FRI DEC 15 2017

Note: "fair" indicates few or no clouds below 12,000 feet with no
significant weather and/or obstructions to visibility.

WVZ003-151300-
Northern Panhandle of West Virginia

CITY           SKY/WX    TMP DP  RH WIND       PRES   REMARKS
WHEELING       CLOUDY    14  11  87 CALM      29.98S
$$

WVZ009-151300-
Northwest West Virginia

CITY           SKY/WX    TMP DP  RH WIND       PRES   REMARKS
PARKERSBURG    CLOUDY    23  17  78 CALM      30.03S
$$

WVZ006-151300-
Western West Virginia

CITY           SKY/WX    TMP DP  RH WIND       PRES   REMARKS
HUNTINGTON     CLOUDY    25  18  74 CALM      30.01S
$$

WVZ015-151300-
West Central West Virginia

CITY           SKY/WX    TMP DP  RH WIND       PRES   REMARKS
CHARLESTON     CLOUDY    29  19  66 CALM      29.99S
$$

WVZ022-031-151300-
North Central West Virginia

CITY           SKY/WX    TMP DP  RH WIND       PRES   REMARKS
CLARKSBURG     CLOUDY    27  20  75 S6        29.97S
MORGANTOWN     CLOUDY    24  19  81 SE3       29.97S
$$

WVZ025-035-042-045-151300-
Southern West Virginia

CITY           SKY/WX    TMP DP  RH WIND       PRES   REMARKS
BECKLEY        CLOUDY    28  21  75 CALM      29.91R
LOGAN          CLOUDY    28  23  80 CALM      29.95S
BLUEFIELD      CLOUDY    25  19  78 VRB3      29.91R
LEWISBURG      CLOUDY    28  22  79 CALM      29.93R
$$

WVZ047-151300-
Northern Mountains of West Virginia

CITY           SKY/WX    TMP DP  RH WIND       PRES   REMARKS
ELKINS         CLOUDY    25  21  85 CALM      29.92S
$$

WVZ052-151300-
Eastern Panhandle of West Virginia

CITY           SKY/WX    TMP DP  RH WIND       PRES   REMARKS
MARTINSBURG    CLOUDY    25  15  66 CALM      30.06S
PETERSBURG     CLOUDY    26  17  69 CALM      30.01S
$$